Вернуться в каталог

SEA LAUNCH DEMO

АктивенНаукаGTO
NORAD 25661·PAYLOAD· XX

Запущен Mar 28, 1999 с Sea Launch Platform

Loading…

TLE

УстаревающийSource: Space-Track

Эпоха: Sep 14, 2026, 12:13 UTC

1 25661U 99014A   26257.50956014 -.00000128  00000-0  69088-3 0  9991
2 25661   1.2998 319.7531 7161384   4.6044 359.5904  2.23255841224104

Отслеживайте SEA LAUNCH DEMO в реальном времени с AllMySat

Download on the App Store